• Processing (Info)

  • MPEC 2019-V41 : 2019 VX

    The following Minor Planet Electronic Circular may be linked-to from your own Web pages, but must not otherwise be redistributed electronically.

    A form allowing access to any MPEC is at the bottom of this page.


    Read MPEC 2019-V40 Read MPEC 2019-V42


    M.P.E.C. 2019-V41                              Issued 2019 November 4, 04:18 UT
    
         The Minor Planet Electronic Circulars contain information on unusual
             minor planets and routine data on comets.  They are published
        on behalf of Division F of the International Astronomical Union by the
              Minor Planet Center, Smithsonian Astrophysical Observatory,
                              Cambridge, MA 02138, U.S.A.
    
                 Prepared using the Tamkin Foundation Computer Network
    
                                  MPC@CFA.HARVARD.EDU
                URL https://www.minorplanetcenter.net/    ISSN 1523-6714
    
                                     2019 VX                                 
    
    
    Observations:
         K19V00X* C2019 11 02.26976600 25 10.176+25 48 29.76         21.11wUEV041F51
         K19V00X  C2019 11 02.28016600 25 09.317+25 48 58.39         21.14wUEV041F51
         K19V00X  C2019 11 02.30128700 25 07.521+25 49 56.08         20.64wUEV041F51
         K19V00X  C2019 11 02.36923900 24 56.74 +25 52 07.3          21.0 GVEV041H01
         K19V00X  C2019 11 02.37332400 24 56.51 +25 52 17.1          20.8 GVEV041H01
         K19V00X  C2019 11 02.38607800 24 55.80 +25 52 48.0          21.2 GVEV041H01
         K19V00X  C2019 11 02.39114700 24 55.53 +25 53 00.3          20.3 GVEV041H01
         K19V00X KC2019 11 03.08818400 24 40.75 +26 26 18.4          20.7 VuEV041H21
         K19V00X KC2019 11 03.09108900 24 40.56 +26 26 27.5          20.6 VuEV041H21
         K19V00X KC2019 11 03.09457200 24 40.31 +26 26 38.4          20.5 VuEV041H21
         K19V00X  C2019 11 03.39686 00 24 19.33 +26 42 05.5          20.6 GVEV041I52
         K19V00X  C2019 11 03.39936 00 24 19.18 +26 42 12.5          20.8 GVEV041I52
         K19V00X  C2019 11 03.40186 00 24 19.07 +26 42 19.7          20.4 GVEV041I52
         K19V00X  C2019 11 03.40436 00 24 18.90 +26 42 27.0          20.2 GVEV041I52
         K19V00X  C2019 11 04.10918 00 24 06.38 +27 23 07.7                VEV041I52
         K19V00X  C2019 11 04.11031 00 24 06.29 +27 23 12.8          20.3 GVEV041I52
    
    Observer details:
    F51 Pan-STARRS 1, Haleakala.  Observers J. Bulger, T. Lowe, A. Schultz, M. 
       Willman.  Measurers K. Chambers, S. Chastel, T. de Boer, L. Denneau, J. 
       Fairlamb, H. Flewelling, M. Huber, C.-C. Lin, E. Magnier, Y. Ramanjooloo, R. 
       Wainscoat, R. Weryk.  1.8-m Ritchey-Chretien + CCD.
    H01 Magdalena Ridge Observatory, Socorro.  Observers W. H. Ryan, E. V. Ryan.  
        Measurer W. H. Ryan.  2.4-m f/8.9 Ritchey-Chretien + CCD.
    H21 Astronomical Research Observatory, Westfield.  Observer R. Holmes.  
        Measurers S. Foglia, L. Buzzi, T. Linder, R. Holmes.  0.76-m f/3.0 
       astrograph + CCD.
    I52 Steward Observatory, Mt. Lemmon Station.  Observers R. A. Kowalski, K. W. 
       Wierzchos.  Measurers E. J. Christensen, G. A. Farneth, D. C. Fuls, A. R. 
       Gibbs, A. D. Grauer, H. Groeller, R. A. Kowalski, S. M. Larson, G. J. 
       Leonard, T. A. Pruyne, D. Rankin, R. L. Seaman, F. C. Shelly, K. W. 
       Wierzchos.  1.0-m reflector + CCD.
    
    Orbital elements:
    2019 VX                                                  Earth MOID = 0.0089 AU
    Epoch 2019 Apr. 27.0 TT = JDT 2458600.5                 Bell
    M 298.28594              (2000.0)            P               Q
    n   0.27216370     Peri.  206.81871     +0.07113475     -0.99575196
    a   2.3582105      Node   239.15377     +0.92694426     +0.08763861
    e   0.6087827      Incl.    3.90457     +0.36839405     -0.02824023
    P   3.62           H   25.2           G   0.15           U   6
    Residuals in seconds of arc
    191102 F51  0.0   0.0     191102 H01  0.1+  0.0     191103 I52  0.2+  0.2-
    191102 F51  0.0   0.0     191103 H21  0.5-  0.1+    191103 I52  0.2-  0.1-
    191102 F51  0.0   0.0     191103 H21  0.1+  0.1+    191104 I52  0.0   0.3-
    191102 H01  0.0   0.0     191103 H21  0.5+  0.2+    191104 I52  0.0   0.4+
    191102 H01  0.1+  0.1-    191103 I52  0.0   0.1+
    191102 H01  0.1+  0.0     191103 I52  0.1-  0.1-
    
    Ephemeris:
    2019 VX                  a,e,i = 2.36, 0.61, 4                   q = 0.9226
    Date    TT    R. A. (2000) Decl.     Delta      r    Elong.  Phase     V
    2019 10 05    00 39 14.4 +18 41 47   0.2743  1.2679   165.7    11.2    23.6
    ...
    2019 10 20    00 32 28.1 +21 01 30   0.1603  1.1488   161.1    16.3    22.4
    ...
    2019 10 28    00 28 04.1 +23 06 52   0.1065  1.0908   154.4    23.2    21.6
    ...
    2019 11 03    00 24 41.3 +26 22 23   0.06818 1.0509   148.5    29.5    20.8
    2019 11 04    00 24 05.3 +27 16 51   0.06194 1.0447   147.4    30.7    20.6
    2019 11 05    00 23 27.0 +28 23 09   0.05573 1.0385   146.3    32.0    20.4
    ...
    2019 11 11    00 14 04.5 +48 59 11   0.02012 1.0041   133.5    45.6    18.5
    ...
    2019 11 19    12 29 57.5 -00 13 48   0.03438 0.9663    49.2   129.3    23.4
    ...
    2019 12 04    12 33 35.3 -13 51 22   0.1270  0.9258    58.5   114.8    25.0
    
    A. U. Tomatic                (C) Copyright 2019 MPC           M.P.E.C. 2019-V41
    


    Read MPEC 2019-V40 Read MPEC 2019-V42


    MPEC number:

    Enter an MPEC number in one of the following forms:

    • 1997-B01 (the full form)
    • J97B01 (the packed version of the full form)
    • B01 (the abbreviated form)